Terug naar catalogus

KUIPER-00416

ActiefCommunicatieLEO
NORAD 68931·PAYLOAD·🇺🇸 United States

Gelanceerd Apr 30, 2026 vanaf Guiana Space Centre

Loading…

Volgende Passages (komende 24 uur)

TLE

VersSource: CelesTrak SupGP

Epoch: Sep 14, 2026, 22:55 UTC

1 68931C 26098N   26257.95496528  .00004475  00000+0  58592-3 0  2570
2 68931  51.9032   7.5689 0000550 112.3475 142.8502 14.79917197    15

Volg KUIPER-00416 in realtime met AllMySat

Download on the App Store